sat.trackr.live / text

‹ back to catalog

STARLINK-36439

NORAD 67624 · 2026-020H

PAYLOAD ACTIVE UNKNOWN

§ Identity

Operator
Country
US
Launch date
2026-01-30
Launch site
AFETR
Launch vehicle
Mass (kg)
RCS (m²)

Purposes: comms

External: N2YO · Heavens-Above · Gunter

§ Orbital elements

Epoch: 2026-09-19T21:12:12.294432Z

Period
94.27 min
Inclination
43.0025°
Eccentricity
0.0001772
Mean motion
15.27591085 rev/d
Perigee alt
481.8 km
Apogee alt
484.2 km
Semi-major
6,861.2 km
B*
5.3198e-4
RAAN
123.0274°
Arg perigee
268.4394°
Mean anomaly
91.6254°
Rev number
3,581

§ Raw data

STARLINK-364391 67624U 26020H   26262.88347563  .00014410  00000+0  53198-3 0  99952 67624  43.0025 123.0274 0001772 268.4394  91.6254 15.27591085 35810

JSON: /api/v1/satellites/67624 · /tle

For live sub-satellite position, see the globe view (requires WebGL).

§ Visibility from observer

Set your observer location to see the next 7 days of passes ≥ 10°. The values pass through the URL so the page stays shareable.

No JS? Fill the form by hand. The geolocation button needs JavaScript.